Lid_Strength_Index
13 15 17 15 15 16 16 16 16 16 15 16 16 16 14 13 13 14 14 13 13 12 11 11 11 11 11 11 10 10 10 9 10 10 10 10 10 10 9 9 8 7 7 7
14 17 15 14 14 15 16 17 17 16 15 16 16 15 13 12 12 12 12 13 13 13 12 12 11 11 11 11 11 10 10 9 10 10 10 10 11 10 9 8 8 7 8 7
15 15 13 14 15 16 16 17 17 17 15 16 17 17 15 13 12 12 11 12 12 12 13 13 12 11 12 12 11 10 10 10 10 10 10 10 10 10 10 9 9 8 8 8
15 15 14 16 16 15 17 16 16 16 17 19 17 21 15 13 14 14 13 13 13 13 12 12 12 12 12 12 11 10 9 10 9 10 10 11 11 11 10 10 9 9 8 8
16 16 17 16 16 15 17 15 16 17 18 19 19 21 17 14 14 13 13 13 13 13 13 12 12 12 12 11 11 10 10 10 10 10 10 11 11 10 10 10 10 9 9 8
17 15 15 16 15 15 15 16 17 17 18 22 18 19 18 15 14 15 14 13 13 13 13 13 13 12 12 11 10 10 10 10 10 10 10 11 11 11 11 11 11 10 10 10
17 18 16 15 17 16 17 19 19 21 23 22 20 21 18 14 14 14 14 14 14 13 14 14 13 13 12 11 10 10 10 11 10 11 11 11 11 11 11 11 11 11 11 11
20 20 18 16 17 18 18 18 19 22 22 21 21 22 17 14 14 13 13 13 13 14 13 13 13 13 12 10 10 10 10 10 10 11 11 11 11 11 11 11 11 11 11 11
18 20 19 17 17 17 19 21 18 20 23 23 20 18 14 13 14 14 14 14 14 13 13 13 13 12 11 11 11 10 10 10 11 11 11 11 11 11 11 11 11 11 11 10
15 20 19 19 18 18 19 17 21 20 25 25 19 20 18 16 14 13 13 13 13 13 13 12 12 11 11 11 11 10 10 11 11 11 11 11 11 11 11 11 11 11 11 11
16 16 20 19 20 19 20 21 20 19 19 20 21 20 15 14 13 13 12 12 12 12 12 12 12 11 11 11 11 11 11 11 11 11 11 11 12 11 11 11 11 11 11 11
16 17 21 20 18 18 19 18 17 19 20 20 20 21 14 13 12 12 12 11 11 11 11 11 11 12 12 12 12 12 12 12 12 11 11 11 11 11 12 12 11 11 12 11
16 19 22 21 21 20 22 18 17 17 18 21 22 20 14 13 14 13 12 12 11 11 12 11 11 11 12 12 12 12 12 12 12 11 12 12 12 12 12 12 11 12 11 11
13 17 19 18 18 20 24 21 19 20 22 19 18 17 14 14 14 13 12 12 11 12 11 11 12 12 12 12 12 12 12 12 12 12 12 12 12 12 12 12 12 12 11 12
16 19 20 19 17 19 19 22 20 20 18 20 17 17 14 13 12 11 12 12 12 12 12 12 12 12 12 12 12 12 13 13 12 12 13 12 12 12 12 12 12 12 12 12
16 18 20 21 18 18 21 19 19 18 18 18 17 17 14 13 13 12 11 11 11 11 12 12 12 12 12 12 13 13 14 13 12 13 13 12 12 12 13 13 13 12 12 12
17 18 19 20 17 19 21 20 19 18 17 17 19 16 13 13 13 12 11 11 11 11 11 11 11 12 12 12 12 13 13 13 13 13 13 12 13 13 13 13 13 14 14 13
16 17 16 18 20 23 17 14 15 16 15 15 15 13 12 12 11 11 10 10 11 11 11 11 12 12 12 12 13 13 13 13 13 13 13 13 14 14 14 15 16 17 16 16
11 12 15 18 18 16 15 15 16 18 16 13 14 13 13 12 12 12 10 10 10 11 11 11 11 12 13 13 13 13 14 14 14 14 14 14 14 15 15 15 15 14 14 18
11 10 14 15 19 20 15 12 11 15 18 12 12 12 12 12 15 13 10 10 10 10 11 12 12 13 13 14 14 13 14 14 14 14 14 14 15 15 16 16 14 14 14 15
14 14 16 16 17 15 11 13 13 19 16 12 11 11 11 12 10 10 11 12 12 12 12 12 13 13 14 14 14 14 14 14 13 15 15 15 15 15 15 14 13 14 15 19
14 15 16 15 17 19 9 12 13 14 10 11 11 11 10 9 9 10 11 12 12 12 14 13 14 14 14 14 13 14 14 14 15 15 15 15 15 15 14 14 13 14 15 20
15 14 15 14 15 14 15 15 15 15 16 16 16 14 12 9 9 10 11 12 14 14 14 14 14 15 17 16 14 15 15 15 16 16 16 17 16 15 14 14 14 14 14 17
13 13 16 15 13 15 14 14 16 16 17 16 16 16 14 14 12 11 11 11 12 12 13 15 15 16 16 16 15 14 14 15 15 15 17 17 16 16 14 13 13 13 14 17
13 13 15 14 14 14 12 15 17 16 16 17 17 17 16 15 15 14 12 11 11 11 12 13 14 15 14 15 15 16 15 14 15 15 15 15 15 15 14 13 13 13 13 14
14 14 15 16 17 17 15 16 19 19 18 19 20 19 16 16 17 17 16 14 13 12 12 13 14 15 13 15 14 15 14 14 15 15 15 15 15 15 13 13 13 11 12 12